Regional Weather Roundup
Issued by NWS Newport/Morehead, NC

Home | Current Version | Previous Version | Text Only | Print | Product List | Glossary On
Versions: 1 2 3 4 5 6 7 8 9 10 11 12 13 14 15 16 17 18 19 20 21 22 23 24 25 26 27 28 29 30 31 32 33 34 35 36 37 38 39 40 41 42 43 44 45 46 47 48 49 50
000
ASUS42 KMHX 032028
RWRMHX
WEATHER ROUNDUP FOR EASTERN NORTH CAROLINA
NATIONAL WEATHER SERVICE NEWPORT/MOREHEAD CITY NC
300 PM EST TUE MAR 03 2015

NOTE: "FAIR" INDICATES FEW OR NO CLOUDS BELOW 12,000 FEET
WITH NO SIGNIFICANT WEATHER AND/OR OBSTRUCTIONS TO VISIBILITY

NCZ015>017-031-032-045>047-102-103-032100-
NORTH COAST

CITY           SKY/WX    TMP DP  RH WIND       PRES   REMARKS
EDENTON        CLOUDY    42  33  70 E6        30.26F
ELIZABETH CITY CLOUDY    43  32  65 E3        30.26F
KITTY HAWK     CLOUDY    40  34  79 NE3       30.25F
MANTEO         CLOUDY    43  36  75 NE6       30.26F

$$

NCZ045>047-081-094-103-104-032100-
CENTRAL COAST

CITY           SKY/WX    TMP DP  RH WIND       PRES   REMARKS
FRISCO         CLOUDY    46  40  79 NE3       30.26F
SWANQUARTER      N/A     48 N/A N/A E3        30.21S

$$

NCZ095-097-098-100-101-032100-
SOUTHERN COAST

CITY           SKY/WX    TMP DP  RH WIND       PRES   REMARKS
BEAUFORT       CLOUDY    47  41  80 NE8       30.24F
CEDAR ISLAND     N/A     41 N/A N/A NE2       30.27F
JACKSONVILLE   CLOUDY    46  40  79 E7        30.23F
PINEY ISLAND     N/A    N/A N/A N/A MISG      30.25F
WILMINGTON     CLOUDY    47  39  74 E6        30.23F


$$

NCZ011>013-027>030-043-044-078>080-089-090>093-098-032100-
COASTAL PLAIN

CITY           SKY/WX    TMP DP  RH WIND       PRES   REMARKS
AHOSKIE        CLOUDY    40  30  67 CALM      30.26F
CLINTON        DRIZZLE   39  39  99 CALM      30.25F
ELIZABETHTOWN  DRIZZLE   42  37  79 CALM      30.23F
GOLDSBORO      CLOUDY    39  39 100 E5        30.22F FOG
GREENVILLE     FAIR      41  34  75 E5        30.25F
HAVELOCK       DRIZZLE   47  36  65 NE8       30.25F
KENANSVILLE    CLOUDY    40  40  97 SE3       30.24F FOG
KINSTON        CLOUDY    41  37  87 E3        30.25F FOG
NEW BERN       CLOUDY    48  34  58 E7        30.25F
RICHLANDS      CLOUDY    43  39  87 E8        30.23F
ROCKY MOUNT    CLOUDY    41  29  62 SE5       30.24F
WASHINGTON     PTSUNNY   43  36  75 E5        30.24F
WHITEVILLE     CLOUDY    46  38  72 NE3       30.21F

$$

AMZ130-135-150-152-154-156-158-170-250-252-270-ANZ085-086-088-633-658-670-032100-
MARINE OBSERVATIONS

STATION/POSITION TIME  TEMP    WIND        PRES    WAVE   SWELL
                       AIR SEA DIR/SP/G            HT/PER HT/PER
                 (UTC) (F)     (DEG/KT/KT) (MB)    (FT/S) (FT/S)
CHESAPEAKE LIGHT 2000   36      90/  8/  8 1025.1
64 E VA BEACH    1950   51 62  130/  8/ 12 1024.4    3/ 6   3/ 6
DUCK             2000   36 35   30/  3/  4 1023.8
2 E DUCK         1941      35                N/A     3/ 6
10 NE DUCK       1952      37                N/A     4/ 6
OREGON INLET     2000   40 39  360/  6/  8 1024.6
HATTERAS CG      2000   43 43   60/  8/ 10 1024.5
CAPE LOOKOUT     2000   46      20/  8/ 10 1023.8
BEAUFORT LAB     2000   47 44   40/  7/ 10 1022.9
27 SE WRIGHTSVLE NOT AVBL
5 SE WRIGHTSVLE  NOT AVBL
225 S CAPE HAT   1950   65 72  120/ 14/ 17 1025.0    7/ 9   5/ 9
41 SE CHARLESTON 1950   70 69  160/  4/  4 1021.1    6/ 7   5/ 7

$$



USA.gov is the U.S. government's official web portal to all federal, state and local government web resources and services.